Flag for Greece Weather past 2 weeks in Kalamaria, Greece

Now
39 °F

Fog.


Feels Like: 36 °F
Forecast: 30 / 50 °F
Wind: 5 mph from Southeast

Location: Thessaloniki Airport

Current Time: Dec 25, 2014 at 5:44:21 AM

Latest Report: Dec 25, 2014 at 4:20 AM


Visibility: 0 mi

Pressure: 30.18 "Hg

Humidity: 93%

Dew point: 37 °F

Location of KalamariaLocation

Historic Weather in Kalamaria — Graph

°F

Kalamaria temperature yesterday

Maximum temperature yesterday: 57 °F (at 3:20 PM)
Minimum temperature yesterday: 34 °F (at 6:20 AM)
Average temperature yesterday: 45 °F

Past Weeks' High & Low Weather Summary

 TemperatureHumidityPressure
High59 °F (Dec 23, 2:20 PM)100% (Dec 15, 5:50 AM)30.45 "Hg (Dec 15, 5:50 AM)
Low32 °F (Dec 19, 6:50 AM)32% (Dec 22, 3:50 PM)29.89 "Hg (Dec 10, 3:20 AM)
Average46 °F83%30.17 "Hg
* Reported Dec 10 3:20 AM — Dec 25 3:50 AM, Kalamaria, Weather by CustomWeather, © 2014

Note: Actual official high and low records may vary slightly from our data, if they occured in-between our weather recording intervals... More about our weather records

Advertising

Kalamaria weather history for previous 24 hours

 ConditionsComfort  
Time TempWeatherWind HumidityBarometerVisibility
3:50 AM
Dec 25
39 °FFog.3 mph93%30.18 "Hg0 mi
3:20 AM39 °FFog.2 mph93%30.21 "Hg0 mi
2:50 AM39 °FChilly.3 mph93%30.21 "Hg3 mi
2:20 AM41 °FQuite cool.5 mph93%30.18 "Hg4 mi
1:50 AM39 °FFog.6 mph93%30.18 "Hg5 mi
1:20 AM39 °FFog.3 mph93%30.18 "Hg5 mi
12:50 AM39 °FFog.3 mph100%30.21 "Hg5 mi
12:20 AM41 °FFog.5 mph93%30.21 "Hg5 mi
11:50 PM
Dec 24
41 °FFog.6 mph93%30.21 "Hg5 mi
11:20 PM43 °FFog.7 mph93%30.21 "Hg5 mi
10:50 PM43 °FFog.8 mph93%30.21 "Hg5 mi
10:20 PM43 °FFog.7 mph93%30.21 "Hg5 mi
9:50 PM43 °FFog.6 mph93%30.24 "Hg5 mi
9:20 PM43 °FFog.7 mph93%30.24 "Hg5 mi
8:50 PM45 °FSnow. Fog.7 mph87%30.24 "Hg4 mi
8:20 PM45 °FClear.7 mph93%30.21 "Hg10 mi
7:50 PM45 °FClear.6 mph93%30.21 "Hg10 mi
7:20 PM46 °FClear.6 mph87%30.21 "Hg10 mi
6:50 PM46 °FClear.2 mph87%30.21 "Hg10 mi
6:20 PM48 °FClear.2 mph87%30.21 "Hg10 mi
5:50 PM50 °FClear.3 mph88%30.21 "Hg10 mi
5:20 PM52 °FClear.3 mph88%30.21 "Hg10 mi
4:50 PM55 °FSunny.3 mph72%30.21 "Hg10 mi
4:20 PM55 °FSunny.5 mph72%30.21 "Hg10 mi
3:50 PM57 °FSunny.3 mph67%30.21 "Hg10 mi
3:20 PM57 °FSunny.3 mph67%30.21 "Hg10 mi
2:50 PM55 °FSunny.3 mph72%30.21 "Hg10 mi
2:20 PM55 °FPassing clouds.3 mph67%30.21 "HgN/A
1:50 PM55 °FPassing clouds.3 mph67%30.24 "HgN/A
1:20 PM55 °FSunny.3 mph63%30.24 "Hg10 mi
12:50 PM55 °FSunny.3 mph67%30.24 "Hg10 mi
12:20 PM54 °FSunny.5 mph72%30.24 "Hg10 mi
11:50 AM54 °FSunny.5 mph72%30.27 "Hg10 mi
11:20 AM54 °FSunny.5 mph67%30.27 "Hg10 mi
10:50 AM54 °FSunny.2 mph58%30.27 "Hg10 mi
10:20 AM52 °FSunny.No wind58%30.27 "Hg10 mi
9:50 AM43 °FSunny.No wind76%30.27 "Hg10 mi
9:20 AM41 °FSunny.3 mph81%30.27 "Hg10 mi
8:50 AM39 °FSunny.5 mph81%30.27 "Hg10 mi
8:20 AM36 °FSunny.7 mph87%30.24 "Hg10 mi
7:50 AM34 °FSunny.7 mph93%30.24 "Hg10 mi
7:20 AM36 °FClear.6 mph87%30.24 "Hg10 mi
6:50 AM36 °FClear.7 mph87%30.24 "Hg10 mi
6:20 AM34 °FClear.6 mph93%30.24 "Hg10 mi
5:50 AM36 °FClear.5 mph87%30.24 "Hg10 mi
5:20 AM36 °FPassing clouds.2 mph87%30.24 "HgN/A
Weather by CustomWeather, © 2014

See weather overviewHow to use our weather pages